Location: Hurstbourne Priors
(51.2000°N, 1.3667°W)
Time: 06:31:35
(UTC+00:00)

Iridium 4 Rocket - Pass Details

Date: 09 April 2020
Orbit: 585 x 904 km, 86.9° (Epoch: 29 May)

Event Time Altitude Azimuth Distance (km) Brightness Sun altitude
Rises 21:30:56 0° 351° (N) 2,865 7.4 -22.0°
Reaches altitude 10° 21:33:14 10° 344° (NNW) 1,937 6.5 -22.2°
Maximum altitude 21:37:12 41° 274° (W) 853 4.0 -22.6°
Enters shadow 21:38:55 27° 223° (SW) 1,138 4.3 -22.8°
